Find Starlink 31045

NORAD ID: 58541 Int'l Des: 2023-192 Owner: SPXS Country: US Constellation: starlink operational
LEOCIRCULAR

リアルタイム位置

3D地球を読み込み中...

Starlink 31045について

説明を読み込み中...

次回通過

Passes for default location (London). Set your location on the main map for personalized predictions.

高度履歴

Loading altitude history...

軌道要素

1 58541U 23192L 26126.55818258 -.00003935 00000-0 -12090-3 0 9996
2 58541 53.1594 230.7871 0001310 92.2299 267.8851 15.30176959133750
Epoch: May 6, 2026 • Age: 11 hours

現在のステータス

高度 487.5 km
速度 7.62 km/s
衛星直下点 -36.04°S, 31.45°W
打ち上げ日 Dec 8, 2023
運用期間 2.4 years
タイプ internet

技術仕様

分類 Payload
質量 730.00 kg
乾燥質量 700.00 kg
総質量 730.00 kg
長さ 0.30 m
直径 4.10 m
スパン 29.00 m
形状 Box + pan
製造者 SPXS
バスタイプ Starlink V2M
フェーズステータス In Orbit
所有者/国 SPXS/US

Most Searched